contact:dominique.lefevre@mio.osupytheas.fr, maurice.libes@osupytheas.fr, didier.mallarino@osupytheas.fr
Project:EMSO http://www.emso-fr.org/EMSO-France
Depth: 2436.0 m
Title:EMSO Ligure Ouest : Data MII capteur CSTAR
DateTime,Latitude,Longitude,Instrument_Serial,Reference_Counts,Signal_Counts,Corrected_Signal_raw_counts,Calculated_Beam_c_inverse_meters,Internal_thermistor_counts
DateTime,Latitude,Longitude,Instrument_Serial,Reference_Counts,Signal_Counts,Corrected_Signal_raw_counts,Calculated_Beam_c_inverse_meters,Internal_thermistor_counts
2022-10-23T00:02:21,42.805,6.029,CST-1368DR,4531,5024,11797,01.122,551
2022-10-23T00:05:23,42.805,6.029,CST-1368DR,4531,5022,11793,01.123,551
2022-10-23T00:08:24,42.805,6.029,CST-1368DR,4531,5031,11813,01.116,551
2022-10-23T00:11:26,42.805,6.029,CST-1368DR,4531,5013,11771,01.131,551
2022-10-23T00:14:27,42.805,6.029,CST-1368DR,4531,5020,11787,01.125,551
2022-10-23T00:17:29,42.805,6.029,CST-1368DR,4531,5020,11788,01.125,551
2022-10-23T00:20:31,42.805,6.029,CST-1368DR,4531,5029,11810,01.117,551
2022-10-23T00:23:32,42.805,6.029,CST-1368DR,4531,5022,11792,01.123,551
2022-10-23T00:26:34,42.805,6.029,CST-1368DR,4531,5014,11775,01.129,551
2022-10-23T00:29:35,42.805,6.029,CST-1368DR,4531,5013,11771,01.131,551
2022-10-23T00:32:37,42.805,6.029,CST-1368DR,4531,5021,11790,01.124,551
2022-10-23T00:35:38,42.805,6.029,CST-1368DR,4531,5019,11785,01.126,551
2022-10-23T00:38:40,42.805,6.029,CST-1368DR,4531,5027,11804,01.119,551
2022-10-23T00:41:42,42.805,6.029,CST-1368DR,4531,5026,11802,01.120,551
2022-10-23T00:44:43,42.805,6.029,CST-1368DR,4531,5021,11790,01.124,551
2022-10-23T00:47:45,42.805,6.029,CST-1368DR,4531,5017,11781,01.127,551
2022-10-23T00:50:46,42.805,6.029,CST-1368DR,4531,5013,11772,01.130,551
2022-10-23T00:53:48,42.805,6.029,CST-1368DR,4531,5013,11772,01.130,551
2022-10-23T00:56:49,42.805,6.029,CST-1368DR,4531,5007,11757,01.135,551
2022-10-23T00:59:51,42.805,6.029,CST-1368DR,4531,5035,11824,01.113,551
2022-10-23T01:02:53,42.805,6.029,CST-1368DR,4531,5021,11790,01.124,551
2022-10-23T01:05:54,42.805,6.029,CST-1368DR,4531,5020,11787,01.125,551
2022-10-23T01:08:56,42.805,6.029,CST-1368DR,4531,5029,11808,01.118,551
2022-10-23T01:11:57,42.805,6.029,CST-1368DR,4531,5025,11799,01.121,551
2022-10-23T01:14:59,42.805,6.029,CST-1368DR,4531,5015,11776,01.129,551
2022-10-23T01:18:01,42.805,6.029,CST-1368DR,4531,5014,11775,01.129,551
2022-10-23T01:21:02,42.805,6.029,CST-1368DR,4531,5019,11787,01.125,551
2022-10-23T01:24:04,42.805,6.029,CST-1368DR,4531,5010,11765,01.133,551
2022-10-23T01:27:05,42.805,6.029,CST-1368DR,4531,5008,11761,01.134,551
2022-10-23T01:30:07,42.805,6.029,CST-1368DR,4531,5029,11809,01.118,551
2022-10-23T01:33:08,42.805,6.029,CST-1368DR,4531,5014,11774,01.130,551
2022-10-23T01:36:10,42.805,6.029,CST-1368DR,4531,5004,11750,01.138,551
2022-10-23T01:39:12,42.805,6.029,CST-1368DR,4531,5008,11760,01.134,551
2022-10-23T01:42:13,42.805,6.029,CST-1368DR,4531,5016,11779,01.128,551
2022-10-23T01:45:15,42.805,6.029,CST-1368DR,4531,5013,11772,01.130,551
2022-10-23T01:48:16,42.805,6.029,CST-1368DR,4531,5007,11757,01.135,551
2022-10-23T01:51:18,42.805,6.029,CST-1368DR,4531,5012,11769,01.131,551
2022-10-23T01:54:19,42.805,6.029,CST-1368DR,4531,5021,11791,01.124,551
2022-10-23T01:57:21,42.805,6.029,CST-1368DR,4531,5009,11763,01.133,551
2022-10-23T02:00:23,42.805,6.029,CST-1368DR,4531,5015,11777,01.129,551
2022-10-23T02:03:24,42.805,6.029,CST-1368DR,4531,5022,11794,01.123,551
2022-10-23T02:06:26,42.805,6.029,CST-1368DR,4531,5022,11793,01.123,551
2022-10-23T02:09:27,42.805,6.029,CST-1368DR,4531,5025,11799,01.121,551
2022-10-23T02:12:29,42.805,6.029,CST-1368DR,4531,5005,11754,01.136,551
2022-10-23T02:15:31,42.805,6.029,CST-1368DR,4531,5004,11750,01.138,551
2022-10-23T02:18:32,42.805,6.029,CST-1368DR,4531,5013,11771,01.131,551
2022-10-23T02:21:34,42.805,6.029,CST-1368DR,4531,5009,11763,01.133,551
2022-10-23T02:24:35,42.805,6.029,CST-1368DR,4531,5017,11781,01.127,551
2022-10-23T02:27:37,42.805,6.029,CST-1368DR,4531,5006,11754,01.136,551
2022-10-23T02:30:38,42.805,6.029,CST-1368DR,4531,5009,11763,01.133,551
2022-10-23T02:33:40,42.805,6.029,CST-1368DR,4531,5007,11757,01.135,551
2022-10-23T02:36:42,42.805,6.029,CST-1368DR,4531,5003,11749,01.138,551
2022-10-23T02:39:43,42.805,6.029,CST-1368DR,4531,5010,11765,01.133,551
2022-10-23T02:42:45,42.805,6.029,CST-1368DR,4531,5024,11797,01.122,551
2022-10-23T02:45:46,42.805,6.029,CST-1368DR,4531,5002,11747,01.139,551
2022-10-23T02:48:48,42.805,6.029,CST-1368DR,4531,5008,11761,01.134,551
2022-10-23T02:51:49,42.805,6.029,CST-1368DR,4531,5005,11753,01.137,551
2022-10-23T02:54:51,42.805,6.029,CST-1368DR,4531,5012,11769,01.131,551
2022-10-23T02:57:53,42.805,6.029,CST-1368DR,4531,5008,11759,01.135,551
2022-10-23T03:00:54,42.805,6.029,CST-1368DR,4531,5020,11788,01.125,551
2022-10-23T03:03:56,42.805,6.029,CST-1368DR,4530,5010,11766,01.132,551
2022-10-23T03:06:57,42.805,6.029,CST-1368DR,4531,5015,11777,01.129,551
2022-10-23T03:09:59,42.805,6.029,CST-1368DR,4530,5004,11753,01.137,551
2022-10-23T03:13:01,42.805,6.029,CST-1368DR,4531,5011,11766,01.132,551
2022-10-23T03:16:02,42.805,6.029,CST-1368DR,4531,5012,11769,01.131,551
2022-10-23T03:19:04,42.805,6.029,CST-1368DR,4531,5003,11749,01.138,551
2022-10-23T03:22:05,42.805,6.029,CST-1368DR,4531,5006,11754,01.136,551
2022-10-23T03:25:07,42.805,6.029,CST-1368DR,4530,5018,11785,01.126,551
2022-10-23T03:28:08,42.805,6.029,CST-1368DR,4530,5012,11773,01.130,551
2022-10-23T03:31:10,42.805,6.029,CST-1368DR,4531,5013,11771,01.131,551
2022-10-23T03:34:12,42.805,6.029,CST-1368DR,4531,5007,11758,01.135,551
2022-10-23T03:37:13,42.805,6.029,CST-1368DR,4531,5016,11780,01.128,551
2022-10-23T03:40:15,42.805,6.029,CST-1368DR,4530,5000,11744,01.140,551
2022-10-23T03:43:16,42.805,6.029,CST-1368DR,4530,5009,11766,01.132,551
2022-10-23T03:46:18,42.805,6.029,CST-1368DR,4530,5009,11765,01.133,551
2022-10-23T03:49:19,42.805,6.029,CST-1368DR,4530,4997,11737,01.142,551
2022-10-23T03:52:21,42.805,6.029,CST-1368DR,4530,4998,11739,01.142,551
2022-10-23T03:55:23,42.805,6.029,CST-1368DR,4530,5010,11768,01.132,551
2022-10-23T03:58:24,42.805,6.029,CST-1368DR,4531,5017,11781,01.127,551
2022-10-23T04:01:26,42.805,6.029,CST-1368DR,4531,5021,11790,01.124,551
2022-10-23T04:04:27,42.805,6.029,CST-1368DR,4531,5023,11795,01.122,551
2022-10-23T04:07:29,42.805,6.029,CST-1368DR,4531,5020,11789,01.125,551
2022-10-23T04:10:31,42.805,6.029,CST-1368DR,4531,5016,11779,01.128,551
2022-10-23T04:13:32,42.805,6.029,CST-1368DR,4530,5019,11789,01.125,551
2022-10-23T04:16:34,42.805,6.029,CST-1368DR,4531,5012,11770,01.131,551
2022-10-23T04:19:35,42.805,6.029,CST-1368DR,4530,5010,11767,01.132,551
2022-10-23T04:22:37,42.805,6.029,CST-1368DR,4531,5015,11777,01.129,551
2022-10-23T04:25:38,42.805,6.029,CST-1368DR,4531,5014,11774,01.130,551
2022-10-23T04:28:40,42.805,6.029,CST-1368DR,4531,5013,11771,01.131,551
2022-10-23T04:31:42,42.805,6.029,CST-1368DR,4531,5020,11789,01.125,551
2022-10-23T04:34:43,42.805,6.029,CST-1368DR,4531,5018,11783,01.127,551
2022-10-23T04:37:45,42.805,6.029,CST-1368DR,4531,5016,11779,01.128,551
2022-10-23T04:40:46,42.805,6.029,CST-1368DR,4531,5025,11800,01.121,551
2022-10-23T04:43:48,42.805,6.029,CST-1368DR,4531,5015,11777,01.129,551
2022-10-23T04:46:49,42.805,6.029,CST-1368DR,4530,4998,11738,01.142,551
2022-10-23T04:49:51,42.805,6.029,CST-1368DR,4531,5013,11771,01.131,551
2022-10-23T04:52:53,42.805,6.029,CST-1368DR,4531,5005,11753,01.137,551
2022-10-23T04:55:54,42.805,6.029,CST-1368DR,4531,5007,11759,01.135,551
2022-10-23T04:58:56,42.805,6.029,CST-1368DR,4531,5012,11770,01.131,551
2022-10-23T05:01:57,42.805,6.029,CST-1368DR,4531,5013,11772,01.130,551
2022-10-23T05:04:59,42.805,6.029,CST-1368DR,4531,5012,11769,01.131,551
2022-10-23T05:08:01,42.805,6.029,CST-1368DR,4531,5012,11769,01.131,551
2022-10-23T05:11:02,42.805,6.029,CST-1368DR,4531,5012,11769,01.131,551
2022-10-23T05:14:04,42.805,6.029,CST-1368DR,4531,5007,11757,01.135,551
2022-10-23T05:17:05,42.805,6.029,CST-1368DR,4531,5006,11754,01.136,551
2022-10-23T05:20:07,42.805,6.029,CST-1368DR,4531,5015,11777,01.129,551
2022-10-23T05:23:08,42.805,6.029,CST-1368DR,4530,5009,11764,01.133,551
2022-10-23T05:26:10,42.805,6.029,CST-1368DR,4531,5013,11771,01.131,551
2022-10-23T05:29:12,42.805,6.029,CST-1368DR,4531,5009,11763,01.133,551
2022-10-23T05:32:13,42.805,6.029,CST-1368DR,4530,5013,11775,01.129,551
2022-10-23T05:35:15,42.805,6.029,CST-1368DR,4530,5011,11769,01.131,551
2022-10-23T05:38:16,42.805,6.029,CST-1368DR,4530,5006,11758,01.135,551
2022-10-23T05:41:18,42.805,6.029,CST-1368DR,4531,5014,11774,01.130,551
2022-10-23T05:44:20,42.805,6.029,CST-1368DR,4530,5010,11767,01.132,551
2022-10-23T05:47:21,42.805,6.029,CST-1368DR,4530,5008,11763,01.133,551
2022-10-23T05:50:23,42.805,6.029,CST-1368DR,4530,5012,11772,01.130,551
2022-10-23T05:53:24,42.805,6.029,CST-1368DR,4531,5009,11762,01.134,551
2022-10-23T05:56:26,42.805,6.029,CST-1368DR,4531,5012,11769,01.131,551
2022-10-23T05:59:27,42.805,6.029,CST-1368DR,4530,5009,11764,01.133,551
2022-10-23T06:02:29,42.805,6.029,CST-1368DR,4530,5006,11758,01.135,551
2022-10-23T06:05:31,42.805,6.029,CST-1368DR,4530,5009,11766,01.132,551
2022-10-23T06:08:32,42.805,6.029,CST-1368DR,4530,5003,11752,01.137,551
2022-10-23T06:11:34,42.805,6.029,CST-1368DR,4530,5003,11751,01.137,551
2022-10-23T06:14:35,42.805,6.029,CST-1368DR,4531,5010,11766,01.132,551
2022-10-23T06:17:37,42.805,6.029,CST-1368DR,4530,5008,11763,01.133,551
2022-10-23T06:20:38,42.805,6.029,CST-1368DR,4530,5015,11780,01.128,551
2022-10-23T06:23:40,42.805,6.029,CST-1368DR,4530,5003,11751,01.137,551
2022-10-23T06:26:42,42.805,6.029,CST-1368DR,4530,5011,11769,01.131,551
2022-10-23T06:29:43,42.805,6.029,CST-1368DR,4530,5012,11773,01.130,551
2022-10-23T06:32:45,42.805,6.029,CST-1368DR,4530,5010,11766,01.132,551
2022-10-23T06:35:46,42.805,6.029,CST-1368DR,4530,5015,11779,01.128,551
2022-10-23T06:38:48,42.805,6.029,CST-1368DR,4530,5009,11765,01.133,551
2022-10-23T06:41:50,42.805,6.029,CST-1368DR,4530,5007,11760,01.134,551
2022-10-23T06:44:51,42.805,6.029,CST-1368DR,4530,5013,11774,01.130,551
2022-10-23T06:47:53,42.805,6.029,CST-1368DR,4530,5022,11796,01.122,551
2022-10-23T06:50:54,42.805,6.029,CST-1368DR,4530,5006,11759,01.135,551
2022-10-23T06:53:56,42.805,6.029,CST-1368DR,4530,5021,11793,01.123,551
2022-10-23T06:56:57,42.805,6.029,CST-1368DR,4530,5007,11761,01.134,551
2022-10-23T06:59:59,42.805,6.029,CST-1368DR,4530,5008,11763,01.133,551
2022-10-23T07:03:01,42.805,6.029,CST-1368DR,4530,5022,11796,01.122,551
2022-10-23T07:06:02,42.805,6.029,CST-1368DR,4530,5027,11807,01.118,551
2022-10-23T07:09:04,42.805,6.029,CST-1368DR,4530,5004,11752,01.137,551
2022-10-23T07:12:05,42.805,6.029,CST-1368DR,4530,4997,11737,01.142,551
2022-10-23T07:15:07,42.805,6.029,CST-1368DR,4530,5018,11785,01.126,551
2022-10-23T07:18:08,42.805,6.029,CST-1368DR,4530,5016,11781,01.127,551
2022-10-23T07:21:10,42.805,6.029,CST-1368DR,4530,5026,11806,01.119,551
2022-10-23T07:24:12,42.805,6.029,CST-1368DR,4530,5026,11804,01.119,551
2022-10-23T07:27:13,42.805,6.029,CST-1368DR,4530,5022,11795,01.122,551
2022-10-23T07:30:15,42.805,6.029,CST-1368DR,4530,5029,11811,01.117,551
2022-10-23T07:33:16,42.805,6.029,CST-1368DR,4530,5030,11813,01.116,551
2022-10-23T07:36:18,42.805,6.029,CST-1368DR,4530,5025,11803,01.120,551
2022-10-23T07:39:20,42.805,6.029,CST-1368DR,4531,5027,11805,01.119,551
2022-10-23T07:42:21,42.805,6.029,CST-1368DR,4530,5025,11802,01.120,551
2022-10-23T07:45:23,42.805,6.029,CST-1368DR,4530,5023,11797,01.122,551
2022-10-23T07:48:24,42.805,6.029,CST-1368DR,4530,5021,11793,01.123,551
2022-10-23T07:51:26,42.805,6.029,CST-1368DR,4530,5023,11797,01.122,551
2022-10-23T07:54:27,42.805,6.029,CST-1368DR,4530,5022,11796,01.122,551
2022-10-23T07:57:29,42.805,6.029,CST-1368DR,4530,5022,11796,01.122,551
2022-10-23T08:00:31,42.805,6.029,CST-1368DR,4530,5017,11783,01.127,551
2022-10-23T08:03:32,42.805,6.029,CST-1368DR,4530,5030,11814,01.116,551
2022-10-23T08:06:34,42.805,6.029,CST-1368DR,4530,5027,11807,01.118,551
2022-10-23T08:09:35,42.805,6.029,CST-1368DR,4530,5022,11796,01.122,551
2022-10-23T08:12:37,42.805,6.029,CST-1368DR,4530,5023,11799,01.121,551
2022-10-23T08:15:38,42.805,6.029,CST-1368DR,4530,5026,11805,01.119,551
2022-10-23T08:18:40,42.805,6.029,CST-1368DR,4530,5027,11808,01.118,551
2022-10-23T08:21:42,42.805,6.029,CST-1368DR,4531,5035,11823,01.113,551
2022-10-23T08:24:43,42.805,6.029,CST-1368DR,4531,5030,11811,01.117,551
2022-10-23T08:27:45,42.805,6.029,CST-1368DR,4530,5027,11807,01.118,551
2022-10-23T08:30:46,42.805,6.029,CST-1368DR,4530,5028,11810,01.117,551
2022-10-23T08:33:48,42.805,6.029,CST-1368DR,4531,5033,11818,01.115,551
2022-10-23T08:36:50,42.805,6.029,CST-1368DR,4530,5026,11804,01.119,551
2022-10-23T08:39:51,42.805,6.029,CST-1368DR,4530,5026,11805,01.119,551
2022-10-23T08:42:53,42.805,6.029,CST-1368DR,4530,5027,11808,01.118,551
2022-10-23T08:45:54,42.805,6.029,CST-1368DR,4530,5034,11824,01.113,551
2022-10-23T08:48:56,42.805,6.029,CST-1368DR,4531,5028,11808,01.118,551
2022-10-23T08:51:57,42.805,6.029,CST-1368DR,4530,5030,11814,01.116,551
2022-10-23T08:54:59,42.805,6.029,CST-1368DR,4530,5028,11809,01.118,551
2022-10-23T08:58:01,42.805,6.029,CST-1368DR,4530,5024,11799,01.121,551
2022-10-23T09:01:02,42.805,6.029,CST-1368DR,4531,5030,11812,01.117,551
2022-10-23T09:04:04,42.805,6.029,CST-1368DR,4530,5024,11800,01.121,551
2022-10-23T09:07:05,42.805,6.029,CST-1368DR,4530,5026,11805,01.119,551
2022-10-23T09:10:07,42.805,6.029,CST-1368DR,4530,5024,11800,01.121,551
2022-10-23T09:13:08,42.805,6.029,CST-1368DR,4530,5027,11808,01.118,551
2022-10-23T09:16:10,42.805,6.029,CST-1368DR,4530,5026,11805,01.119,551
2022-10-23T09:19:12,42.805,6.029,CST-1368DR,4530,5035,11826,01.112,551
2022-10-23T09:22:13,42.805,6.029,CST-1368DR,4530,5025,11803,01.120,551
2022-10-23T09:25:15,42.805,6.029,CST-1368DR,4530,5027,11806,01.119,551
2022-10-23T09:28:16,42.805,6.029,CST-1368DR,4530,5030,11814,01.116,551
2022-10-23T09:31:18,42.805,6.029,CST-1368DR,4530,5029,11812,01.117,551
2022-10-23T09:34:19,42.805,6.029,CST-1368DR,4530,5026,11805,01.119,551
2022-10-23T09:37:21,42.805,6.029,CST-1368DR,4530,5020,11790,01.124,551
2022-10-23T09:40:23,42.805,6.029,CST-1368DR,4530,5013,11775,01.129,551
2022-10-23T09:43:24,42.805,6.029,CST-1368DR,4530,5015,11780,01.128,551
2022-10-23T09:46:26,42.805,6.029,CST-1368DR,4530,5014,11776,01.129,551
2022-10-23T09:49:27,42.805,6.029,CST-1368DR,4530,5011,11769,01.131,551
2022-10-23T09:52:29,42.805,6.029,CST-1368DR,4530,5007,11761,01.134,551
2022-10-23T09:55:31,42.805,6.029,CST-1368DR,4530,4999,11741,01.141,551
2022-10-23T09:58:32,42.805,6.029,CST-1368DR,4530,4995,11732,01.144,551
2022-10-23T10:01:34,42.805,6.029,CST-1368DR,4530,4998,11739,01.142,551
2022-10-23T10:04:35,42.805,6.029,CST-1368DR,4530,4998,11740,01.141,551
2022-10-23T10:07:37,42.805,6.029,CST-1368DR,4530,4992,11724,01.147,551
2022-10-23T10:10:38,42.805,6.029,CST-1368DR,4530,4986,11712,01.151,551
2022-10-23T10:13:40,42.805,6.029,CST-1368DR,4530,4989,11719,01.148,551
2022-10-23T10:16:42,42.805,6.029,CST-1368DR,4530,4993,11728,01.145,551
2022-10-23T10:19:43,42.805,6.029,CST-1368DR,4530,4988,11716,01.149,551
2022-10-23T10:22:45,42.805,6.029,CST-1368DR,4530,4977,11689,01.159,551
2022-10-23T10:25:46,42.805,6.029,CST-1368DR,4530,4990,11721,01.148,551
2022-10-23T10:28:48,42.805,6.029,CST-1368DR,4531,5067,11899,01.087,551
2022-10-23T10:31:50,42.805,6.029,CST-1368DR,4531,5063,11889,01.091,551
2022-10-23T10:34:51,42.805,6.029,CST-1368DR,4531,5065,11894,01.089,551
2022-10-23T10:37:53,42.805,6.029,CST-1368DR,4531,5067,11899,01.087,551
2022-10-23T10:40:54,42.805,6.029,CST-1368DR,4531,5073,11913,01.083,551
2022-10-23T10:43:56,42.805,6.029,CST-1368DR,4531,5071,11908,01.084,551
2022-10-23T10:46:57,42.805,6.029,CST-1368DR,4531,5064,11891,01.090,551
2022-10-23T10:49:59,42.805,6.029,CST-1368DR,4531,5075,11918,01.081,551
2022-10-23T10:53:01,42.805,6.029,CST-1368DR,4531,5074,11915,01.082,551
2022-10-23T10:56:02,42.805,6.029,CST-1368DR,4531,5071,11908,01.084,551
2022-10-23T10:59:04,42.805,6.029,CST-1368DR,4531,5077,11922,01.080,551
2022-10-23T11:02:05,42.805,6.029,CST-1368DR,4531,5067,11898,01.088,551
2022-10-23T11:05:07,42.805,6.029,CST-1368DR,4531,5074,11915,01.082,551
2022-10-23T11:08:08,42.805,6.029,CST-1368DR,4531,5072,11910,01.084,551
2022-10-23T11:11:10,42.805,6.029,CST-1368DR,4531,5077,11922,01.080,551
2022-10-23T11:14:12,42.805,6.029,CST-1368DR,4531,5078,11925,01.079,551
2022-10-23T11:17:13,42.805,6.029,CST-1368DR,4531,5077,11922,01.080,551
2022-10-23T11:20:15,42.805,6.029,CST-1368DR,4531,5073,11912,01.083,551
2022-10-23T11:23:16,42.805,6.029,CST-1368DR,4531,5083,11936,01.075,551
2022-10-23T11:26:18,42.805,6.029,CST-1368DR,4531,5081,11931,01.077,551
2022-10-23T11:29:20,42.805,6.029,CST-1368DR,4531,5078,11924,01.079,551
2022-10-23T11:32:21,42.805,6.029,CST-1368DR,4531,5078,11925,01.079,551
2022-10-23T11:35:23,42.805,6.029,CST-1368DR,4531,5076,11919,01.081,551
2022-10-23T11:38:24,42.805,6.029,CST-1368DR,4531,5075,11916,01.082,551
2022-10-23T11:41:26,42.805,6.029,CST-1368DR,4531,5086,11944,01.072,551
2022-10-23T11:44:27,42.805,6.029,CST-1368DR,4531,5079,11928,01.078,551
2022-10-23T11:47:29,42.805,6.029,CST-1368DR,4531,5083,11935,01.075,551
2022-10-23T11:50:31,42.805,6.029,CST-1368DR,4531,5080,11930,01.077,551
2022-10-23T11:53:32,42.805,6.029,CST-1368DR,4531,5072,11910,01.084,551
2022-10-23T11:56:34,42.805,6.029,CST-1368DR,4531,5082,11934,01.076,551
2022-10-23T11:59:35,42.805,6.029,CST-1368DR,4531,5080,11928,01.078,551
2022-10-23T12:02:37,42.805,6.029,CST-1368DR,4531,5086,11943,01.073,551
2022-10-23T12:05:38,42.805,6.029,CST-1368DR,4531,5083,11937,01.075,551
2022-10-23T12:08:40,42.805,6.029,CST-1368DR,4531,5079,11927,01.078,551
2022-10-23T12:11:42,42.805,6.029,CST-1368DR,4531,5084,11938,01.074,551
2022-10-23T12:14:43,42.805,6.029,CST-1368DR,4531,5086,11944,01.072,551
2022-10-23T12:17:45,42.805,6.029,CST-1368DR,4530,5080,11933,01.076,551
2022-10-23T12:20:46,42.805,6.029,CST-1368DR,4531,5079,11926,01.078,551
2022-10-23T12:23:48,42.805,6.029,CST-1368DR,4531,5084,11938,01.074,551
2022-10-23T12:26:50,42.805,6.029,CST-1368DR,4531,5081,11932,01.076,551
2022-10-23T12:29:51,42.805,6.029,CST-1368DR,4531,5083,11935,01.075,551
2022-10-23T12:32:53,42.805,6.029,CST-1368DR,4531,5083,11936,01.075,551
2022-10-23T12:35:54,42.805,6.029,CST-1368DR,4530,5077,11924,01.079,551
2022-10-23T12:38:56,42.805,6.029,CST-1368DR,4531,5084,11938,01.074,551
2022-10-23T12:41:57,42.805,6.029,CST-1368DR,4531,5086,11943,01.073,551
2022-10-23T12:44:59,42.805,6.029,CST-1368DR,4531,5081,11932,01.076,551
2022-10-23T12:48:01,42.805,6.029,CST-1368DR,4531,5083,11935,01.075,551
2022-10-23T12:51:02,42.805,6.029,CST-1368DR,4531,5082,11934,01.076,551
2022-10-23T12:54:04,42.805,6.029,CST-1368DR,4531,5087,11945,01.072,551
2022-10-23T12:57:05,42.805,6.029,CST-1368DR,4531,5074,11916,01.082,551
2022-10-23T13:00:07,42.805,6.029,CST-1368DR,4531,5088,11948,01.071,551
2022-10-23T13:03:08,42.805,6.029,CST-1368DR,4531,5084,11938,01.074,551
2022-10-23T13:06:10,42.805,6.029,CST-1368DR,4531,5085,11940,01.074,551
2022-10-23T13:09:12,42.805,6.029,CST-1368DR,4531,5087,11945,01.072,551
2022-10-23T13:12:13,42.805,6.029,CST-1368DR,4531,5082,11933,01.076,551
2022-10-23T13:15:15,42.805,6.029,CST-1368DR,4530,5086,11947,01.071,551
2022-10-23T13:18:16,42.805,6.029,CST-1368DR,4531,5082,11934,01.076,551
2022-10-23T13:21:18,42.805,6.029,CST-1368DR,4531,5086,11943,01.073,551
2022-10-23T13:24:20,42.805,6.029,CST-1368DR,4531,5084,11939,01.074,551
2022-10-23T13:27:21,42.805,6.029,CST-1368DR,4531,5085,11942,01.073,551
2022-10-23T13:30:23,42.805,6.029,CST-1368DR,4531,5081,11932,01.076,551
2022-10-23T13:33:24,42.805,6.029,CST-1368DR,4531,5084,11939,01.074,551
2022-10-23T13:36:26,42.805,6.029,CST-1368DR,4531,5087,11946,01.072,551
2022-10-23T13:39:27,42.805,6.029,CST-1368DR,4531,5082,11933,01.076,551
2022-10-23T13:42:29,42.805,6.029,CST-1368DR,4531,5088,11948,01.071,551
2022-10-23T13:45:31,42.805,6.029,CST-1368DR,4531,5087,11945,01.072,551
2022-10-23T13:48:32,42.805,6.029,CST-1368DR,4531,5084,11939,01.074,551
2022-10-23T13:51:34,42.805,6.029,CST-1368DR,4531,5085,11942,01.073,551
2022-10-23T13:54:35,42.805,6.029,CST-1368DR,4531,5081,11931,01.077,551
2022-10-23T13:57:37,42.805,6.029,CST-1368DR,4531,5089,11951,01.070,551
2022-10-23T14:00:38,42.805,6.029,CST-1368DR,4531,5089,11951,01.070,551
2022-10-23T14:03:40,42.805,6.029,CST-1368DR,4531,5080,11930,01.077,551
2022-10-23T14:06:42,42.805,6.029,CST-1368DR,4531,5085,11942,01.073,551
2022-10-23T14:09:43,42.805,6.029,CST-1368DR,4531,5085,11940,01.074,551
2022-10-23T14:12:45,42.805,6.029,CST-1368DR,4531,5077,11921,01.080,551
2022-10-23T14:15:46,42.805,6.029,CST-1368DR,4531,5087,11946,01.072,551
2022-10-23T14:18:48,42.805,6.029,CST-1368DR,4531,5088,11948,01.071,551
2022-10-23T14:21:50,42.805,6.029,CST-1368DR,4531,5087,11946,01.072,551
2022-10-23T14:24:51,42.805,6.029,CST-1368DR,4531,5086,11944,01.072,551
2022-10-23T14:27:53,42.805,6.029,CST-1368DR,4531,5087,11945,01.072,551
2022-10-23T14:30:54,42.805,6.029,CST-1368DR,4530,5081,11934,01.076,551
2022-10-23T14:33:56,42.805,6.029,CST-1368DR,4531,5084,11939,01.074,551
2022-10-23T14:36:57,42.805,6.029,CST-1368DR,4531,5085,11941,01.073,551
2022-10-23T14:39:59,42.805,6.029,CST-1368DR,4531,5085,11942,01.073,550
2022-10-23T14:43:01,42.805,6.029,CST-1368DR,4531,5091,11954,01.069,551
2022-10-23T14:46:02,42.805,6.029,CST-1368DR,4531,5090,11952,01.070,551
2022-10-23T14:49:04,42.805,6.029,CST-1368DR,4530,5083,11940,01.074,551
2022-10-23T14:52:05,42.805,6.029,CST-1368DR,4530,5085,11944,01.072,551
2022-10-23T14:55:07,42.805,6.029,CST-1368DR,4531,5086,11944,01.072,551
2022-10-23T14:58:09,42.805,6.029,CST-1368DR,4531,5083,11936,01.075,551
2022-10-23T15:01:10,42.805,6.029,CST-1368DR,4530,5083,11939,01.074,551
2022-10-23T15:04:12,42.805,6.029,CST-1368DR,4531,5093,11959,01.067,551
2022-10-23T15:07:13,42.805,6.029,CST-1368DR,4531,5087,11945,01.072,551
2022-10-23T15:10:15,42.805,6.029,CST-1368DR,4530,5085,11944,01.072,551
2022-10-23T15:13:16,42.805,6.029,CST-1368DR,4530,5090,11955,01.069,551
2022-10-23T15:16:18,42.805,6.029,CST-1368DR,4531,5088,11949,01.071,551
2022-10-23T15:19:20,42.805,6.029,CST-1368DR,4531,5087,11946,01.072,551
2022-10-23T15:22:21,42.805,6.029,CST-1368DR,4530,5088,11951,01.070,551
2022-10-23T15:25:23,42.805,6.029,CST-1368DR,4531,5087,11946,01.072,551
2022-10-23T15:28:24,42.805,6.029,CST-1368DR,4530,5090,11955,01.069,551
2022-10-23T15:31:26,42.805,6.029,CST-1368DR,4530,5091,11958,01.068,551
2022-10-23T15:34:27,42.805,6.029,CST-1368DR,4530,5093,11961,01.067,551
2022-10-23T15:37:29,42.805,6.029,CST-1368DR,4530,5091,11958,01.068,551
2022-10-23T15:40:31,42.805,6.029,CST-1368DR,4530,5085,11944,01.072,551
2022-10-23T15:43:32,42.805,6.029,CST-1368DR,4530,5090,11954,01.069,551
2022-10-23T15:46:34,42.805,6.029,CST-1368DR,4530,5088,11951,01.070,551
2022-10-23T15:49:35,42.805,6.029,CST-1368DR,4530,5087,11948,01.071,551
2022-10-23T15:52:37,42.805,6.029,CST-1368DR,4530,5089,11953,01.069,551
2022-10-23T15:55:39,42.805,6.029,CST-1368DR,4530,5085,11944,01.072,551
2022-10-23T15:58:40,42.805,6.029,CST-1368DR,4531,5085,11942,01.073,551
2022-10-23T16:01:42,42.805,6.029,CST-1368DR,4530,5087,11948,01.071,551
2022-10-23T16:04:43,42.805,6.029,CST-1368DR,4530,5084,11941,01.073,550
2022-10-23T16:07:45,42.805,6.029,CST-1368DR,4530,5086,11946,01.072,551
2022-10-23T16:10:46,42.805,6.029,CST-1368DR,4530,5088,11950,01.070,551
2022-10-23T16:13:48,42.805,6.029,CST-1368DR,4530,5091,11957,01.068,551
2022-10-23T16:16:50,42.805,6.029,CST-1368DR,4530,5088,11951,01.070,551
2022-10-23T16:19:51,42.805,6.029,CST-1368DR,4530,5093,11961,01.067,551
2022-10-23T16:22:53,42.805,6.029,CST-1368DR,4530,5085,11944,01.072,551
2022-10-23T16:25:54,42.805,6.029,CST-1368DR,4530,5087,11949,01.071,551
2022-10-23T16:28:56,42.805,6.029,CST-1368DR,4530,5092,11959,01.067,551
2022-10-23T16:31:57,42.805,6.029,CST-1368DR,4530,5094,11965,01.065,551
2022-10-23T16:34:59,42.805,6.029,CST-1368DR,4530,5092,11960,01.067,551
2022-10-23T16:38:01,42.805,6.029,CST-1368DR,4530,5088,11950,01.070,551